カタログに戻る

TJS-17 AKM

運用中GEO
NORAD 63629·ROCKET BODY·🇨🇳 China

打ち上げ Apr 10, 2025 から Xichang Satellite Launch Center

Loading…

TLE

最新Source: Space-Track

元期: Sep 14, 2026, 02:36 UTC

1 63629U 25073C   26257.10845351  .00000046  00000-0  00000+0 0  9991
2 63629   1.3137  81.7439 0011502  99.2489 261.9562  0.98859138  5114

AllMySatでTJS-17 AKMをリアルタイム追跡

Download on the App Store